Location: Allen Fire Department Station 4
(33.1073°N, 96.6988°W)
Time: 02:35:35
(UTC+00:00)

Okean O Rocket - Visible Passes

Search period start: 26 June 2022 00:00
Search period end: 06 July 2022 00:00
Orbit: 623 x 643 km, 98.2° (Epoch: 25 June)

Date Brightness Start Highest point End Pass type
(mag) Time Alt. Az. Time Alt. Az. Time Alt. Az.
27 Jun 3.8 02:06:41 10° SSW 02:10:19 26° W 02:14:00 10° NW visible
28 Jun 4.4 02:29:15 10° SW 02:31:42 15° W 02:34:09 10° WNW visible
02 Jul 4.2 02:17:01 10° SW 02:20:16 20° W 02:23:32 10° NW visible
03 Jul 4.6 02:40:18 10° WSW 02:41:40 11° W 02:43:01 10° WNW visible
